sat.trackr.live / text

‹ back to catalog

GLOBALSTAR M072

NORAD 31574 · 2007-020D

PAYLOAD ACTIVE UNKNOWN

§ Identity

Operator
Country
GLOB
Launch date
2007-05-29
Launch site
TYMSC
Launch vehicle
Mass (kg)
RCS (m²)
2.27

Purposes: comms

External: N2YO · Heavens-Above · Gunter

§ Orbital elements

Epoch: 2026-05-25T01:29:20.676768Z

Period
120.84 min
Inclination
51.9897°
Eccentricity
0.0001370
Mean motion
11.91658311 rev/d
Perigee alt
1,717.3 km
Apogee alt
1,719.5 km
Semi-major
8,096.6 km
B*
1.7109e-4
RAAN
161.8116°
Arg perigee
265.1844°
Mean anomaly
128.5001°
Rev number
87,222

§ Raw data

GLOBALSTAR M0721 31574U 07020D   26145.06204487 -.00000072  00000+0  17109-3 0  99982 31574  51.9897 161.8116 0001370 265.1844 128.5001 11.91658311872220

JSON: /api/v1/satellites/31574 · /tle

For live sub-satellite position, see the globe view (requires WebGL).

§ Visibility from observer

Set your observer location to see the next 7 days of passes ≥ 10°. The values pass through the URL so the page stays shareable.

No JS? Fill the form by hand. The geolocation button needs JavaScript.